Theta_e
333 334 335 335 336 336 336 336 337 337 337 338 337 337 337 336 336 335 335 335 336 336 336 336 336 336 336 336 336 336 336 336 335 334 333 333 333 333 334 335 335 337 337 338 337 337 336 335 336 335 336 336 335 334 332 331 329 328 327 326 328 331 330 326 325 325 325 324 329 335 331 321 321 333 340 339 339 337 336 337 336 337 337 337 338
331 333 334 334 336 335 335 336 336 337 337 337 337 338 337 337 337 336 335 336 336 336 337 337 337 337 336 336 336 336 336 335 335 334 333 334 335 335 334 334 336 338 338 338 339 338 337 337 337 336 335 335 335 335 334 333 332 331 329 328 327 330 329 325 325 324 323 325 331 334 334 333 334 340 343 342 341 338 338 337 336 335 334 335 336
329 330 332 333 334 333 333 334 336 336 336 337 337 337 337 337 337 337 336 336 337 337 338 338 338 338 338 337 338 338 338 337 337 335 335 336 336 337 336 336 336 338 338 338 339 338 338 338 338 336 335 335 335 335 334 333 333 333 332 331 328 328 327 324 323 321 320 323 332 334 334 337 338 340 341 340 341 341 339 338 336 333 332 333 333
328 328 328 331 332 331 331 331 333 333 334 335 335 336 336 337 337 337 337 338 338 338 339 338 338 338 338 338 338 338 339 338 338 337 336 336 335 335 336 337 337 338 338 338 338 338 338 338 338 337 336 335 335 334 334 333 333 334 333 332 329 327 326 325 323 321 318 318 327 333 333 335 337 338 338 336 337 341 341 338 336 333 333 333 332
328 328 326 328 328 329 328 329 329 329 331 331 332 333 334 336 336 337 337 338 337 338 338 337 338 337 337 337 337 337 337 337 336 336 335 333 332 333 335 337 337 338 338 337 337 337 337 337 337 337 336 336 335 335 335 335 335 335 334 332 331 330 328 327 326 324 321 316 319 328 334 335 336 339 339 336 335 338 339 338 337 337 333 329 328
328 327 325 325 326 326 325 325 326 326 327 328 330 331 333 335 335 336 337 337 336 336 336 336 336 336 336 336 335 335 335 335 334 334 332 331 331 332 333 335 336 336 336 337 337 336 336 336 336 336 336 335 335 334 334 335 335 334 334 332 331 331 329 328 327 326 323 320 317 322 333 336 337 338 339 338 336 336 335 335 336 334 329 324 322
328 327 325 324 324 324 323 323 322 323 324 325 328 330 332 334 335 335 335 335 335 336 335 335 335 335 335 334 333 333 333 333 332 332 331 330 329 330 331 331 333 334 334 335 335 334 334 333 333 333 333 333 332 332 332 332 333 332 332 331 330 329 328 327 327 326 324 323 321 320 327 335 337 337 338 339 339 337 335 334 333 331 327 324 323
326 326 325 323 322 322 322 322 322 322 323 324 327 329 330 332 333 333 333 334 334 334 333 333 333 333 333 332 332 332 331 331 330 329 328 328 327 328 328 328 329 331 331 332 331 330 330 330 329 329 330 329 328 328 328 328 328 329 329 329 328 327 327 326 326 326 325 323 322 321 321 329 336 337 337 338 339 338 337 336 335 334 331 328 327
326 326 324 322 320 320 321 322 323 323 324 326 328 329 328 330 330 330 332 331 331 330 330 330 330 330 330 330 330 330 329 328 327 326 326 325 325 324 324 324 325 327 327 328 327 327 326 326 325 324 324 322 322 322 321 321 322 323 323 324 324 324 324 325 326 326 326 325 324 324 322 323 329 335 336 337 339 339 338 336 335 334 331 327 328
326 325 325 321 318 320 322 323 323 323 325 326 326 327 327 327 328 328 329 329 329 328 328 327 327 327 327 327 327 325 325 324 323 322 322 321 320 319 319 319 320 322 323 324 324 323 323 322 320 317 314 311 310 310 310 310 310 311 312 314 316 317 319 321 323 324 325 326 326 326 325 322 324 331 334 335 338 339 337 336 334 332 330 329 329
326 326 325 322 318 320 323 324 323 324 325 325 325 326 326 326 326 326 326 328 327 326 326 325 323 323 324 324 322 320 318 318 317 317 316 314 313 312 311 311 312 314 317 318 318 317 315 312 309 305 303 301 300 300 300 300 300 300 301 302 304 306 309 312 316 319 321 323 324 326 327 325 325 330 332 333 336 338 338 336 334 333 333 331 329
326 325 324 322 319 320 322 322 323 324 323 323 323 323 323 323 323 323 323 324 324 321 320 320 319 318 318 316 313 311 311 310 309 308 308 307 305 304 303 303 303 304 306 307 307 306 304 301 299 298 297 297 297 297 297 297 297 297 297 297 297 298 300 302 305 309 314 317 320 323 326 327 328 331 332 333 334 336 337 336 336 335 334 331 329
324 324 323 321 318 320 319 320 321 321 320 319 319 317 317 318 317 317 318 318 316 314 313 312 311 310 308 305 304 303 303 303 302 302 301 301 300 299 299 299 299 299 299 299 299 299 298 297 297 297 297 297 297 297 297 297 297 297 297 297 297 297 297 298 299 300 304 309 314 320 324 326 329 331 333 333 333 335 337 336 336 336 334 331 329
323 323 322 320 317 319 318 318 317 316 315 313 312 311 311 311 311 311 311 310 308 307 306 305 304 303 301 300 300 299 299 299 299 299 298 298 298 298 298 298 298 298 298 298 298 298 298 298 297 297 297 297 297 297 297 297 297 297 297 297 297 298 299 299 299 299 300 301 306 313 319 323 325 328 330 332 333 334 337 337 337 336 335 332 331
321 320 319 318 316 317 317 315 313 312 310 307 307 306 306 307 306 307 307 306 305 303 302 301 300 299 299 299 298 298 298 298 298 298 298 298 298 298 298 298 298 298 298 298 298 298 298 298 298 298 297 297 297 297 297 297 297 297 297 297 298 300 301 301 302 303 304 304 304 308 314 318 320 323 326 329 331 332 333 335 336 335 334 333 332
319 318 317 316 315 316 317 314 312 309 306 305 304 303 303 303 302 303 303 302 301 300 299 299 298 298 298 298 298 298 298 298 298 298 298 298 298 297 297 297 297 297 297 297 297 297 297 297 297 297 297 297 297 297 297 297 297 296 297 297 299 301 302 304 305 306 308 309 309 311 314 317 319 320 323 326 329 331 332 333 334 334 334 334 334
318 318 317 315 314 315 315 314 310 307 305 303 301 301 300 300 300 300 299 299 299 298 298 298 298 298 298 298 298 298 298 298 298 297 297 297 297 297 297 296 296 296 296 296 296 296 296 296 296 296 296 296 296 296 296 296 296 296 296 297 298 299 301 302 304 305 308 310 311 313 314 316 317 317 319 323 327 330 332 333 335 335 335 335 334
317 317 317 315 314 313 314 313 308 305 303 301 299 299 299 299 299 299 299 298 298 298 298 298 298 298 298 298 298 298 298 298 298 297 297 297 297 297 296 296 296 296 296 296 296 296 296 296 296 296 296 296 296 296 296 296 296 296 296 296 296 297 297 298 298 300 301 304 307 309 312 313 313 313 315 319 322 326 329 330 332 334 335 335 334
316 315 315 315 313 312 313 311 306 304 302 300 299 298 299 299 299 299 299 298 299 298 298 298 298 298 298 298 298 298 298 298 298 297 297 297 296 296 296 296 296 296 297 297 297 297 297 296 296 296 296 296 296 296 296 296 296 296 296 296 296 296 296 296 296 296 296 297 299 302 306 308 309 310 312 315 318 322 324 325 326 328 329 331 331
315 314 314 313 313 312 312 309 305 303 301 299 299 299 299 299 299 299 299 298 299 298 298 298 298 298 298 298 298 298 298 298 298 297 297 296 296 296 296 296 297 297 297 297 297 297 296 296 296 296 296 296 296 296 296 296 296 296 296 296 296 296 296 296 296 296 296 296 296 297 298 301 303 306 308 311 314 317 319 320 321 322 324 325 326
314 313 313 312 312 312 311 307 304 302 300 299 299 299 298 298 299 298 298 298 298 298 298 297 298 298 298 299 298 298 298 298 298 298 297 297 297 297 297 297 296 296 296 296 296 296 296 296 296 296 296 296 296 296 296 296 296 296 296 296 296 296 296 296 296 296 297 297 297 297 296 297 298 301 303 306 309 311 314 316 317 318 318 318 319
312 313 312 312 311 311 311 306 303 302 299 298 298 298 298 298 298 298 298 298 298 297 297 297 297 298 298 298 298 298 298 298 298 297 298 297 297 297 297 296 296 296 295 295 295 295 295 295 295 295 295 295 295 295 295 295 295 295 296 296 296 296 296 296 296 296 297 297 298 297 298 297 297 298 300 303 306 308 308 310 311 311 312 313 316
310 311 310 310 310 310 310 306 303 301 299 298 298 297 297 298 298 298 298 298 298 297 297 297 297 298 298 297 297 298 297 297 297 297 297 297 297 296 296 295 295 295 294 294 294 294 294 294 294 294 295 295 295 295 295 295 295 295 295 295 295 295 295 295 295 296 296 297 297 297 297 298 298 298 299 303 306 307 307 307 308 308 310 313 316
308 309 309 309 309 309 309 306 303 300 299 298 298 297 297 297 298 298 297 297 297 297 297 297 297 297 297 297 297 297 297 297 297 297 297 297 296 296 295 294 294 293 293 293 293 293 294 294 294 295 295 295 295 295 295 295 295 295 295 295 295 295 295 295 295 295 295 296 296 297 297 297 297 297 298 301 303 305 306 307 308 309 311 313 315
306 306 307 307 308 307 307 306 303 300 299 298 297 297 297 297 297 297 297 297 297 297 297 297 297 297 297 297 296 297 297 297 297 297 296 296 296 295 294 294 293 293 293 293 294 294 294 294 295 295 295 295 295 295 295 295 295 295 295 295 295 295 294 294 295 295 295 295 295 295 296 296 296 296 297 299 302 306 308 309 310 311 312 314 315
304 305 306 306 307 306 305 305 302 300 299 298 298 298 297 297 297 297 297 297 297 297 296 296 297 297 297 297 296 296 296 296 296 297 296 296 295 295 294 293 293 293 293 294 294 294 295 295 295 296 295 295 295 295 295 295 295 295 295 295 295 294 294 294 295 295 295 295 295 295 295 295 295 296 296 298 304 307 309 311 311 313 314 315 316
304 304 305 305 306 305 304 303 302 300 299 298 298 298 297 297 297 297 297 297 297 297 296 296 297 297 296 296 296 295 296 296 296 296 296 296 295 295 295 294 294 294 294 294 294 295 295 295 295 295 295 294 294 294 295 295 295 295 295 294 294 294 294 294 294 294 295 295 295 295 294 294 294 295 295 297 303 307 309 311 311 313 314 315 316
303 303 303 304 304 305 304 303 302 301 300 299 299 299 298 297 297 296 296 297 297 296 296 296 296 297 296 295 296 295 295 296 296 296 296 295 295 295 295 295 295 295 295 295 295 295 295 295 295 295 294 294 294 294 294 294 294 294 294 294 294 294 293 293 293 294 294 294 295 294 295 295 294 294 294 296 300 305 307 309 310 312 313 314 314
303 303 303 303 304 304 303 303 302 302 301 300 300 300 298 297 296 296 296 296 296 296 296 295 296 296 295 294 295 295 295 296 296 296 295 295 295 295 295 295 295 295 295 295 295 295 295 295 295 294 294 294 294 294 294 294 294 294 294 294 293 293 293 293 293 293 293 294 294 294 294 294 294 294 294 294 296 300 304 306 308 310 311 312 313
304 304 303 303 303 303 303 303 302 302 301 301 301 300 299 297 296 296 297 296 296 296 295 295 295 295 294 294 295 295 295 296 296 296 295 295 296 295 295 294 294 295 294 294 295 295 295 295 295 294 293 293 293 293 293 293 293 293 293 293 293 293 293 292 292 293 293 293 293 294 294 294 294 294 294 294 295 296 298 301 304 306 308 310 311
304 303 303 303 302 302 303 303 302 302 302 301 301 301 299 297 296 296 296 296 296 295 295 294 294 294 294 294 295 295 295 295 295 296 295 295 296 295 295 294 294 294 294 294 294 295 295 295 294 294 293 293 293 293 293 293 293 292 292 292 292 292 292 292 292 292 292 293 293 293 294 294 294 294 294 295 295 296 296 298 299 301 305 308 309
304 304 304 303 302 302 303 302 302 302 301 301 301 301 299 297 297 297 296 296 296 295 295 294 293 293 294 295 295 295 295 295 295 296 296 295 296 295 294 294 294 294 294 294 294 294 295 294 294 293 293 292 292 292 292 292 292 292 292 292 292 292 292 292 292 292 292 292 293 293 294 294 294 295 295 295 295 296 296 297 297 298 302 305 307
305 305 304 303 303 303 302 302 302 301 301 301 301 301 299 297 297 297 297 297 297 296 295 295 294 293 294 295 295 295 294 294 295 295 295 295 296 295 294 294 293 294 294 294 294 294 294 293 293 293 292 292 292 292 292 292 292 291 292 292 292 292 292 292 292 292 292 292 293 294 294 294 295 295 295 295 295 295 296 297 297 297 299 302 305
305 304 303 304 303 303 302 302 301 301 301 301 301 301 299 297 297 298 298 298 298 297 295 296 295 293 293 295 295 295 294 294 294 295 295 295 295 294 294 294 293 293 294 294 293 293 293 293 293 292 292 292 292 292 292 292 292 291 291 291 292 292 292 292 291 291 292 293 294 294 295 295 295 295 295 295 295 295 295 296 297 298 297 298 300
305 304 305 305 304 303 302 301 301 301 301 301 301 300 299 297 297 299 298 298 298 297 296 296 296 293 293 294 294 294 293 293 294 295 295 295 295 294 294 293 293 293 293 293 293 293 293 293 293 293 292 292 292 291 291 291 291 291 291 291 291 292 292 292 291 292 293 294 295 295 296 296 296 296 296 296 296 296 296 295 295 297 298 297 297
306 306 306 304 303 303 302 301 301 301 300 301 300 300 299 298 298 298 299 298 298 297 297 297 297 294 292 293 293 293 293 293 294 294 295 295 295 294 294 293 293 293 293 293 293 293 293 293 293 292 292 292 291 291 290 290 290 291 291 291 291 291 291 291 291 292 294 295 296 296 296 297 297 297 296 296 296 296 296 296 295 295 297 298 298
307 307 306 304 303 302 302 302 302 301 301 300 300 300 299 298 299 299 299 299 298 298 298 298 297 295 293 292 293 293 292 293 294 294 294 295 294 294 293 293 293 293 293 293 293 293 293 293 292 292 291 291 291 290 290 290 290 290 290 290 290 290 291 290 291 293 294 295 295 295 294 295 295 295 295 295 295 295 295 295 294 293 295 298 298
306 306 306 305 304 303 302 302 301 301 300 300 300 299 299 299 299 299 299 299 298 298 298 298 297 295 294 292 292 292 292 293 293 293 293 294 294 293 292 293 293 292 292 293 293 293 293 292 292 291 291 290 290 289 289 289 289 290 290 290 290 291 291 290 291 292 294 294 292 291 292 292 293 293 293 293 294 294 294 294 294 294 294 296 296
306 306 305 304 303 302 301 301 300 300 300 300 299 299 299 299 299 299 299 299 299 298 298 298 297 296 295 293 292 292 292 293 293 293 293 293 293 292 292 292 292 292 292 293 293 293 292 291 291 291 290 290 289 289 289 289 289 289 289 289 290 290 290 290 291 292 292 291 290 291 292 292 293 293 294 293 294 294 294 294 294 293 293 293 294
306 305 304 303 302 301 300 300 300 299 299 299 299 298 298 298 298 298 298 298 298 298 297 297 296 296 295 294 292 292 292 292 292 292 292 292 293 292 292 292 292 292 292 292 292 292 291 291 290 290 289 289 289 288 288 288 289 288 288 289 290 291 290 290 291 292 291 290 290 292 291 291 292 293 293 292 292 292 293 293 293 292 291 292 292
305 304 304 303 302 301 300 300 299 299 299 299 298 298 298 298 298 298 298 297 297 297 297 297 296 295 295 294 292 291 291 291 292 292 292 292 292 292 292 292 292 292 292 291 291 291 291 290 290 289 289 289 288 288 288 288 288 288 288 289 289 290 291 291 291 291 289 290 291 291 289 290 291 291 291 291 290 291 291 292 291 290 290 291 292
305 304 304 303 302 301 300 300 299 299 299 299 299 298 298 298 298 298 297 297 297 297 297 296 296 295 295 294 292 291 291 291 291 291 292 292 292 292 292 292 292 292 291 291 290 290 290 290 289 289 289 289 288 288 288 287 287 286 286 288 290 291 291 290 291 291 289 290 291 289 289 290 290 290 290 289 289 290 290 290 290 289 289 290 291
304 304 303 302 301 300 300 299 299 299 299 299 299 299 299 298 298 298 297 297 297 297 296 296 295 295 295 295 293 291 290 291 291 291 292 293 293 293 293 292 292 291 291 291 290 290 290 289 289 289 289 288 288 288 288 287 286 286 287 290 291 292 293 291 290 290 289 290 290 288 289 289 289 289 289 288 289 289 289 289 289 289 289 289 290
304 302 302 301 300 300 299 299 299 299 299 299 299 299 298 298 297 297 297 297 296 296 296 295 295 295 295 295 294 292 290 290 291 291 292 292 292 293 292 292 291 291 291 290 290 290 289 289 288 289 289 288 288 287 288 287 286 286 288 290 289 290 294 291 287 289 289 289 288 288 288 288 288 288 288 288 288 288 288 288 288 288 288 288 289
303 302 301 301 300 300 299 299 299 298 299 299 298 298 297 297 296 296 296 295 295 295 295 294 295 295 295 295 294 293 292 290 290 291 291 292 292 292 291 291 291 291 290 290 290 289 288 288 288 288 289 289 288 287 287 287 286 286 287 289 290 291 293 289 286 288 289 288 288 288 287 287 287 288 288 288 288 288 288 287 287 288 288 288 288
302 302 302 301 300 299 299 299 298 298 298 298 298 297 297 296 296 295 295 294 294 294 294 294 294 294 295 294 294 293 293 291 290 290 291 291 291 291 290 291 290 290 290 289 289 288 288 288 287 288 288 289 288 287 287 286 285 285 285 287 288 289 288 286 287 289 287 287 287 287 287 287 287 288 287 287 287 287 287 287 287 287 287 288 288
302 302 301 300 300 299 298 298 298 298 298 298 297 297 297 296 296 296 295 294 294 294 294 294 294 294 294 294 294 293 293 292 290 290 290 290 290 290 290 290 289 289 289 289 288 288 287 287 287 287 287 288 288 287 287 286 285 285 286 286 286 286 285 286 287 287 287 286 286 287 287 287 287 287 287 287 287 287 287 287 286 286 287 287 287
301 301 300 300 299 299 298 298 298 298 297 297 297 297 297 296 296 296 295 295 295 294 294 294 294 294 294 294 294 293 293 292 291 290 290 289 289 289 289 289 288 288 288 288 288 287 287 287 287 287 287 288 288 287 286 285 285 285 285 285 285 285 285 285 285 285 286 286 285 286 286 286 286 286 286 286 286 286 286 286 286 286 286 287 287
300 301 300 299 299 298 298 298 297 297 297 297 297 297 297 297 296 296 295 295 295 294 294 293 293 293 293 293 293 293 293 292 291 290 289 289 288 288 288 288 288 288 288 288 287 287 286 287 287 286 287 287 288 287 286 285 285 285 285 285 284 284 284 285 284 284 285 285 285 285 285 285 285 285 285 285 285 286 286 286 286 286 286 286 287
300 300 299 299 298 298 297 297 297 297 297 297 297 297 297 296 296 296 295 295 294 294 293 293 293 293 293 292 292 292 292 292 291 290 289 288 288 288 288 288 288 288 288 287 287 286 286 286 286 286 286 287 287 287 286 285 284 284 284 284 284 284 284 284 284 284 284 284 284 284 284 284 284 285 285 285 285 285 285 286 286 286 286 286 286
299 299 299 298 298 297 297 297 297 297 296 297 297 297 297 296 296 296 295 295 294 293 293 292 292 292 292 292 291 291 291 291 291 290 289 288 288 287 287 287 287 287 287 287 287 287 286 286 286 286 286 286 287 286 285 285 284 284 284 284 284 284 284 284 284 284 283 283 283 283 283 283 283 284 285 284 284 284 285 286 286 286 286 286 286
Wind_Speed
22 20 19 17 15 14 12 12 12 11 11 10 10 10 10 9 9 8 8 7 7 7 6 6 6 6 6 6 6 6 6 6 6 5 5 4 4 4 4 3 3 3 3 5 5 5 5 4 4 3 2 3 4 4 5 6 7 8 8 8 7 6 8 9 10 11 12 11 10 11 11 6 4 4 4 3 2 2 2 2 2 3 3 3 3
24 22 20 19 17 16 15 14 13 12 12 12 11 11 11 10 10 9 9 8 7 7 7 7 7 7 7 7 7 7 6 6 6 6 6 6 6 6 5 4 3 3 3 4 4 4 4 4 4 3 2 2 2 4 5 6 7 8 8 9 9 8 8 9 10 11 12 11 9 12 12 9 7 5 5 4 3 3 2 2 3 4 4 5 4
24 22 20 20 19 18 17 16 15 14 13 13 12 12 12 11 11 10 10 10 10 9 9 9 8 8 8 8 9 8 8 8 8 7 7 7 7 7 6 6 5 5 4 4 4 3 3 3 4 3 2 1 2 3 4 5 6 7 8 8 9 9 9 10 10 10 11 10 9 11 11 11 10 7 6 5 4 4 2 2 3 4 5 5 5
22 21 19 19 19 19 18 18 17 16 14 13 13 13 12 12 12 11 12 11 11 11 10 10 9 9 8 9 9 9 9 9 8 8 8 7 6 6 7 7 7 7 5 4 4 3 3 4 3 4 3 2 2 3 3 4 5 6 6 7 8 8 9 10 10 11 10 9 7 8 9 10 10 7 6 6 5 4 2 2 3 4 4 4 5
22 20 20 19 18 18 18 18 17 17 15 14 13 12 12 11 11 11 12 11 11 10 10 9 9 9 8 8 8 8 8 7 7 6 6 6 5 6 7 7 7 7 6 5 5 4 5 4 3 4 3 3 3 4 4 4 5 5 5 6 6 7 8 9 9 10 10 9 7 5 5 8 9 7 7 6 5 4 2 2 3 4 5 5 5
21 20 19 19 19 18 17 18 17 17 16 15 14 13 13 13 12 12 12 11 11 10 10 10 9 9 8 8 8 7 7 6 6 5 5 5 5 5 6 7 7 7 6 5 5 5 5 4 3 3 2 2 3 3 4 4 4 4 5 5 6 7 8 8 8 9 9 9 8 5 3 5 7 7 7 6 3 3 3 3 4 5 7 8 7
20 20 19 20 19 19 18 18 17 17 16 15 15 14 14 14 14 13 12 12 11 11 10 10 9 9 9 8 8 7 7 6 6 6 5 5 5 5 6 6 6 6 5 4 4 4 4 3 1 1 2 2 2 2 3 3 3 4 4 4 6 7 8 8 8 8 8 8 8 7 4 2 4 5 5 5 4 2 3 5 7 6 7 9 9
20 21 19 20 20 20 19 19 18 17 17 17 17 15 15 15 14 14 13 12 11 11 10 9 9 9 9 8 8 8 7 7 6 5 5 4 4 5 5 6 6 6 6 4 3 3 3 2 2 1 1 2 3 3 3 3 4 4 5 5 6 7 8 9 9 9 9 9 8 8 6 3 2 2 2 3 4 5 5 6 7 7 8 9 9
21 21 19 20 20 21 20 20 19 18 18 18 19 16 16 16 16 15 14 14 12 12 11 10 9 9 9 9 8 8 7 6 6 6 6 5 5 5 5 6 6 6 6 5 4 3 2 1 1 2 3 3 4 4 4 4 5 5 6 6 7 8 8 9 9 10 9 9 8 8 7 5 4 3 2 2 4 6 6 7 8 8 9 8 8
22 21 20 20 20 21 20 21 20 19 20 20 20 18 18 17 17 17 16 15 15 15 13 12 11 11 10 9 8 7 7 7 7 6 6 6 6 6 6 6 6 7 7 6 5 3 2 0 1 2 3 3 4 4 4 4 5 5 6 6 7 8 8 8 9 9 9 8 7 7 7 6 6 4 3 3 5 8 8 8 10 10 9 8 7
23 22 20 20 20 21 21 21 20 20 21 21 21 20 19 19 19 18 18 17 16 16 15 14 13 12 11 9 8 7 7 7 7 7 6 6 6 5 5 6 6 6 6 6 5 3 2 1 2 3 3 4 4 4 4 4 4 5 5 6 6 7 7 8 9 9 8 8 7 7 7 7 6 5 5 4 6 9 10 10 11 10 10 10 9
24 22 21 20 21 20 21 20 20 21 21 21 21 19 19 19 18 17 17 17 16 15 14 13 12 10 10 9 8 8 7 7 7 6 6 5 5 5 5 5 5 6 6 5 5 4 3 3 3 3 4 4 4 5 5 5 5 5 6 6 6 6 6 7 8 8 8 8 7 6 6 7 6 5 5 5 6 9 11 11 11 11 11 11 10
25 23 22 22 22 22 22 21 21 21 20 20 19 18 17 17 17 15 15 15 14 13 12 11 10 10 9 9 9 8 8 7 7 6 6 6 5 5 5 5 6 6 6 5 5 4 5 5 5 5 5 6 6 6 6 6 6 6 7 7 6 6 6 6 6 7 7 7 7 6 6 6 7 7 6 6 6 7 10 12 12 12 12 12 11
27 25 23 23 23 23 23 22 21 20 19 19 18 17 17 17 16 16 15 14 14 13 12 11 11 11 10 10 10 9 9 8 8 7 7 7 7 7 7 7 7 7 7 7 6 6 6 6 6 6 6 7 6 6 6 6 6 7 7 7 7 6 6 6 6 6 6 6 6 6 6 6 7 8 8 8 8 7 9 12 12 12 12 12 12
27 26 24 24 24 24 23 22 21 20 19 19 18 18 18 18 17 17 16 15 14 14 13 13 12 12 12 11 11 11 10 10 9 9 9 9 9 9 8 8 8 9 8 8 7 7 7 6 6 6 6 6 6 6 6 6 6 7 7 6 6 6 7 6 6 6 6 5 5 4 5 5 5 6 7 8 9 9 9 11 13 13 14 13 12
26 26 25 24 25 25 24 22 21 20 20 20 20 20 19 18 17 17 16 16 15 15 14 14 13 13 13 12 12 12 11 11 11 11 11 10 10 9 9 9 9 9 8 8 8 8 8 7 7 7 7 6 6 6 7 7 7 7 7 6 6 6 6 6 6 6 6 6 5 5 4 4 4 4 5 6 8 9 9 10 13 15 14 13 13
26 25 25 25 25 25 24 23 22 22 22 22 21 20 19 18 17 16 16 16 15 15 15 15 14 14 14 13 13 13 13 13 13 12 12 11 10 10 9 9 9 9 9 9 9 9 9 9 8 8 8 7 7 7 7 7 7 7 7 7 7 7 7 6 6 6 6 6 5 5 5 4 4 4 5 6 7 8 8 9 11 12 11 11 12
26 25 25 25 25 25 25 24 24 24 23 22 22 20 19 17 17 16 15 15 15 15 15 15 15 15 14 13 13 13 13 13 13 13 12 11 11 10 10 10 10 10 9 9 9 9 9 8 8 8 8 8 7 7 7 7 7 7 7 7 7 7 7 7 6 6 6 6 6 5 5 5 5 5 6 7 6 6 7 9 10 10 10 10 11
27 26 25 26 26 26 25 25 25 25 24 23 22 20 19 17 16 15 15 15 16 16 16 16 16 15 14 14 14 13 13 13 13 13 12 11 11 11 11 11 10 9 9 8 8 8 7 7 7 7 6 6 6 6 6 6 6 7 7 7 7 7 7 7 7 7 7 7 6 6 6 6 6 6 6 7 7 6 8 9 10 11 11 11 12
27 27 26 26 27 27 26 26 26 25 24 23 21 21 19 18 17 16 16 16 17 17 17 17 17 16 15 15 15 14 14 13 13 13 12 12 11 12 11 11 10 9 9 8 8 8 7 7 7 6 6 6 6 6 6 6 6 7 7 7 7 7 7 7 8 8 8 8 8 7 7 6 7 7 8 8 8 8 9 10 11 12 13 14 15
29 29 28 28 28 29 28 28 27 26 24 23 22 21 20 18 17 17 17 17 18 19 19 18 18 17 17 17 17 16 16 15 15 14 14 13 13 12 12 11 10 9 9 9 8 8 8 8 8 7 7 7 7 7 7 7 7 7 7 8 8 7 8 8 8 8 7 7 7 8 7 7 7 7 8 9 9 9 11 12 13 14 15 16 16
32 31 31 30 31 31 31 30 29 27 26 25 23 22 21 20 19 19 19 19 20 20 20 19 19 19 19 19 19 18 18 17 17 16 15 15 14 13 12 11 10 10 9 9 9 9 9 9 9 9 8 8 8 8 8 8 8 8 8 8 8 8 8 8 8 8 7 7 7 7 7 7 7 7 8 9 9 10 11 12 14 15 15 16 17
34 35 35 34 34 34 34 33 32 30 28 27 25 23 22 21 21 21 20 21 21 21 21 21 21 21 21 21 20 20 19 19 18 17 16 15 14 13 12 11 10 10 10 10 10 10 9 9 9 9 9 9 9 9 8 8 8 8 8 8 8 9 9 9 8 8 8 7 7 7 6 6 6 6 7 8 9 10 10 11 12 14 15 16 18
38 39 39 38 37 37 36 36 34 32 31 29 27 25 24 23 23 23 23 23 22 22 22 22 23 23 23 23 22 21 21 20 19 17 16 15 14 13 12 11 10 10 10 9 9 10 9 9 10 9 9 9 9 9 8 8 8 8 8 8 9 9 9 9 9 8 8 7 7 7 7 6 6 6 6 7 8 9 10 11 12 13 15 17 18
38 37 37 39 39 39 38 38 36 35 33 32 30 28 27 26 26 25 25 25 25 24 24 25 26 25 25 25 23 22 21 20 19 17 16 15 13 13 12 11 10 9 9 8 9 9 9 9 10 9 9 9 9 8 7 7 7 7 8 8 9 9 9 9 9 9 9 8 8 8 8 8 7 7 7 8 9 11 11 12 12 13 14 16 17
33 36 39 41 41 40 39 39 38 37 36 34 32 30 30 29 28 28 28 27 27 27 27 28 27 26 26 25 23 21 20 20 18 17 16 14 13 13 12 10 9 8 8 7 8 8 9 9 10 10 10 9 8 8 7 6 6 7 8 8 9 9 10 10 10 10 10 9 9 9 9 9 9 9 8 8 10 12 13 13 14 14 14 15 16
35 39 41 41 42 42 41 40 39 39 37 35 33 32 32 31 30 29 29 30 29 29 30 29 27 25 24 24 22 21 20 20 19 17 16 15 14 13 11 9 8 7 7 7 7 8 9 9 10 10 9 8 7 7 6 6 6 7 8 9 10 11 11 12 12 12 11 10 10 10 10 10 10 10 9 9 11 13 13 13 13 13 14 14 14
35 38 38 39 42 43 42 41 41 40 38 36 35 34 33 32 31 31 31 30 30 30 30 28 26 24 24 24 23 22 21 20 19 18 17 16 15 13 11 9 7 6 5 6 6 7 8 9 9 9 9 8 7 6 5 6 7 8 9 10 11 12 13 13 13 13 13 12 11 11 11 11 11 11 11 10 10 12 12 13 13 13 13 13 13
35 38 38 39 42 43 43 43 42 41 40 38 37 36 34 33 33 32 31 31 30 30 29 28 27 26 26 25 24 23 21 21 20 19 18 17 16 13 11 9 7 6 5 5 5 6 7 8 9 9 9 7 7 6 6 6 8 8 10 11 12 12 14 14 15 15 14 14 12 12 11 10 11 11 12 11 10 11 12 12 12 12 13 13 14
39 39 38 40 42 42 44 45 44 42 41 39 38 37 36 35 34 33 32 31 31 30 29 28 28 27 27 27 26 24 22 21 20 20 19 18 16 14 12 10 8 6 6 4 4 5 6 7 8 8 8 7 6 6 6 7 8 9 10 11 12 13 14 15 16 16 15 14 13 12 11 10 10 11 11 11 10 11 11 11 11 12 13 14 15
37 36 39 41 40 42 45 46 45 43 42 41 40 39 38 37 35 34 33 32 31 30 29 29 29 29 28 27 27 25 23 21 21 20 19 18 16 14 12 11 9 7 6 4 4 4 4 5 6 7 7 6 6 6 6 7 8 9 10 11 12 13 15 16 16 16 16 15 14 13 11 10 10 10 10 9 10 11 12 12 11 11 13 14 16
36 40 42 39 39 43 45 46 45 44 43 43 42 40 39 38 36 35 34 33 32 31 31 30 30 30 29 28 27 25 23 22 21 20 20 18 16 15 13 11 10 8 6 4 3 3 4 5 5 6 6 6 5 6 7 8 9 10 11 12 13 14 15 15 16 16 16 15 13 12 11 9 8 8 9 10 11 12 13 13 12 12 12 13 15
41 42 38 38 41 43 45 45 45 44 44 44 43 42 41 39 37 36 35 34 33 32 32 31 31 30 30 29 27 26 24 23 22 21 20 18 17 15 14 12 10 8 6 5 3 3 3 4 4 5 5 5 4 5 7 8 9 11 12 12 13 14 15 15 16 15 15 14 12 11 9 8 8 9 9 10 11 12 13 13 12 11 12 13 14
40 36 36 40 42 43 44 44 45 46 45 44 43 42 41 40 39 37 36 35 34 33 33 32 31 31 30 29 28 26 25 23 22 21 20 19 18 16 14 13 11 9 7 5 4 3 2 3 4 4 4 4 4 5 7 8 10 12 12 13 14 14 14 15 15 14 14 12 10 9 8 7 8 8 9 10 11 11 12 13 13 13 13 14 16
37 36 41 44 43 43 44 44 46 47 46 45 44 44 42 41 40 38 37 36 34 34 33 32 31 31 31 30 29 27 25 24 23 22 22 20 19 17 16 14 11 10 7 6 4 3 1 1 3 4 4 4 5 7 8 10 11 13 13 14 14 15 14 14 14 13 11 9 8 9 8 7 7 8 9 10 11 12 13 14 15 15 14 15 17
39 42 44 42 41 43 43 44 46 46 46 46 45 44 43 41 40 39 37 37 36 35 34 32 31 31 32 31 30 28 27 25 24 23 22 21 19 18 16 14 12 10 8 7 5 3 1 1 2 3 4 3 4 7 8 10 12 14 15 15 16 15 13 13 12 9 7 7 8 8 7 6 6 7 8 10 11 12 13 15 16 16 15 14 16
43 44 42 41 42 43 44 45 46 47 47 46 45 44 43 41 41 39 38 37 36 36 34 33 32 32 33 32 31 29 28 26 25 24 23 22 20 18 17 15 13 11 9 7 5 3 1 1 2 2 3 3 5 6 8 11 13 16 16 16 18 16 13 12 9 6 5 5 6 7 7 7 6 7 9 10 11 12 13 14 16 16 16 14 15
42 43 42 43 43 44 45 46 46 46 46 45 44 43 42 40 39 39 38 38 37 36 35 34 34 33 33 33 32 30 29 27 26 25 24 22 20 19 17 15 14 12 10 8 6 4 1 1 1 2 2 3 5 7 10 12 15 18 18 19 19 16 13 10 6 3 3 5 10 14 12 8 8 8 8 9 10 11 12 13 15 16 17 16 16
40 40 41 41 41 42 43 44 43 44 43 43 42 41 39 38 38 38 37 37 37 36 36 36 35 34 33 33 32 31 29 28 27 26 25 23 21 20 18 16 14 12 11 9 6 4 2 2 0 1 2 3 5 8 11 13 17 18 18 21 19 14 10 6 4 2 4 11 17 13 10 9 7 7 8 10 11 11 12 13 14 17 19 18 19
38 38 39 39 40 40 41 41 42 42 41 40 39 38 36 36 36 36 37 38 39 38 38 37 36 35 33 33 33 32 30 30 29 27 26 24 22 21 19 17 15 13 11 9 7 5 4 3 1 1 1 2 3 6 10 14 18 18 21 21 17 12 7 3 1 5 10 19 12 7 12 12 9 8 9 11 13 13 13 13 15 17 19 19 19
34 35 37 40 42 42 42 42 42 42 43 42 41 40 39 37 37 39 40 41 41 40 39 38 37 36 34 33 34 32 31 31 29 28 27 25 23 21 20 18 16 14 11 10 8 7 6 4 3 2 1 0 2 4 8 13 14 16 21 19 17 11 3 1 7 4 20 16 2 9 16 11 9 9 10 13 14 14 12 12 15 17 18 17 17
35 38 41 43 43 42 43 44 43 44 46 46 45 44 44 43 42 43 43 41 41 41 40 40 38 37 35 34 35 33 32 31 30 29 28 26 25 23 21 19 17 15 13 11 10 8 7 5 4 3 2 1 2 3 7 10 9 12 13 12 15 11 5 2 10 6 22 5 3 15 14 9 10 9 11 14 15 14 13 13 16 18 17 16 16
39 41 42 42 41 42 43 43 44 46 47 47 47 46 46 45 43 41 40 38 39 40 39 39 38 37 36 35 35 34 33 32 31 30 29 27 26 25 23 20 18 16 14 13 11 10 8 7 6 4 2 0 3 3 6 8 9 11 7 4 6 6 6 1 5 20 16 3 8 17 9 10 11 11 14 16 16 15 15 17 19 20 18 17 17
34 36 38 38 40 43 44 45 46 47 47 47 47 45 42 40 37 35 36 35 34 36 35 35 37 37 36 36 35 35 34 34 33 31 30 29 27 25 23 21 19 17 15 13 12 11 9 8 6 5 3 0 2 2 3 6 8 8 4 2 1 1 2 2 13 24 6 2 16 13 11 18 16 16 18 16 18 18 19 21 21 22 21 20 21
32 37 40 42 44 45 46 45 46 46 47 47 45 42 39 36 32 28 29 29 28 30 32 33 36 38 38 39 38 37 36 35 34 33 32 30 28 26 24 22 20 18 16 14 12 11 10 9 7 5 3 0 1 2 1 2 5 5 2 1 1 1 1 3 12 12 7 14 18 12 21 26 19 19 19 20 23 21 22 24 23 23 23 23 23
35 40 43 44 44 44 44 44 44 44 44 44 44 42 40 39 36 32 31 29 27 32 39 40 41 42 42 41 39 38 36 36 35 34 32 30 29 27 25 23 21 19 17 15 13 12 11 10 8 6 4 1 1 1 1 0 2 2 1 1 2 3 4 7 7 4 11 17 12 18 32 27 21 23 23 26 27 25 25 24 23 24 24 24 24
36 38 38 39 39 40 42 43 43 43 43 43 43 43 42 41 41 39 38 36 34 37 41 39 40 42 40 40 40 39 38 37 36 35 33 31 29 27 25 23 22 20 18 16 15 14 12 10 9 8 5 2 1 1 0 2 1 1 2 2 3 5 6 7 4 3 10 9 12 28 30 21 26 31 29 30 29 27 26 23 25 26 24 25 24
30 31 33 36 38 40 42 43 42 42 43 44 45 45 44 43 43 41 39 40 40 37 35 34 36 38 38 39 40 39 39 37 36 35 34 31 29 28 26 24 22 20 18 17 16 14 13 13 11 10 7 3 1 2 1 3 2 2 2 3 4 6 7 8 7 5 4 5 16 26 24 26 33 31 28 32 31 28 26 27 28 25 24 24 24
26 31 35 36 37 38 40 41 41 42 43 44 46 46 46 45 44 42 39 40 39 34 32 32 34 36 38 38 39 39 39 38 37 36 34 32 30 28 27 25 23 22 20 18 16 16 15 14 12 11 9 5 2 2 2 3 3 3 3 4 5 6 8 10 8 5 3 5 8 12 21 35 37 32 33 32 28 28 29 29 26 23 23 23 22
26 30 31 32 34 36 38 40 41 41 42 45 46 47 46 45 44 44 42 39 35 31 30 31 33 35 37 38 38 39 39 39 38 36 34 32 30 29 27 26 24 22 21 19 18 18 17 15 13 12 10 6 3 2 3 4 4 4 4 4 5 6 6 5 3 4 3 5 5 6 15 21 23 34 44 37 29 30 29 25 23 23 21 19 21
23 26 28 31 34 36 38 40 40 41 42 44 47 47 47 46 45 45 44 39 35 32 31 32 33 35 36 36 37 37 38 39 39 38 35 33 31 30 28 26 24 23 21 20 20 19 17 16 15 13 11 7 4 3 4 5 5 5 6 6 6 5 4 4 6 7 5 5 6 6 11 15 15 25 36 38 36 33 27 24 22 20 16 16 20
Wind_Direction
168 168 166 160 166 165 158 156 151 150 147 149 154 160 163 163 163 161 159 153 146 142 139 133 129 124 118 114 110 103 98 93 89 87 83 81 84 86 90 96 92 63 40 36 33 35 34 34 38 43 36 10 8 15 19 23 23 23 22 21 21 22 25 26 27 29 29 25 28 35 33 46 91 118 98 87 109 95 67 59 44 48 37 30 33
165 167 169 163 167 167 162 158 154 151 147 146 144 151 153 154 158 158 156 151 148 145 141 134 130 127 127 122 118 118 113 108 104 104 103 97 94 94 101 111 110 85 66 61 53 46 34 35 38 40 43 23 15 21 20 14 12 16 15 11 9 11 14 15 17 21 25 29 39 41 44 59 69 82 74 60 92 99 74 53 36 23 16 17 16
164 167 170 165 167 168 165 160 158 155 150 147 142 144 142 145 149 148 148 148 148 143 139 135 131 127 124 121 119 120 116 113 108 108 107 102 103 104 107 114 119 104 92 88 77 72 55 62 59 47 43 41 26 16 12 5 5 7 9 7 0 357 357 359 4 10 19 32 42 45 54 63 59 60 52 28 50 83 56 36 37 23 17 14 11
169 171 173 171 171 170 169 166 165 161 157 156 151 148 144 145 143 142 141 142 144 139 138 136 135 132 126 126 123 123 119 117 113 112 108 106 119 122 116 114 119 110 98 101 98 95 88 86 79 66 61 55 36 18 10 1 5 3 6 5 355 350 347 351 358 2 11 29 41 46 54 55 49 47 40 21 31 63 59 31 32 29 20 6 1
174 175 178 179 178 176 175 174 172 168 168 166 162 159 156 153 149 149 145 145 148 144 143 144 145 143 139 138 135 134 127 122 120 117 113 118 134 136 127 110 106 112 102 101 102 102 101 96 94 83 69 55 48 38 32 22 19 13 7 0 353 351 352 358 2 4 7 21 33 41 51 54 49 38 30 24 32 55 54 21 6 3 351 345 344
179 179 181 183 183 181 180 180 178 176 176 172 167 166 164 163 162 159 156 158 160 153 150 156 156 148 144 143 143 140 132 127 125 119 117 139 149 145 142 115 96 106 104 99 108 111 111 110 107 94 77 53 44 37 33 28 24 17 7 356 352 348 349 354 356 358 0 9 18 22 43 71 62 44 30 16 29 57 27 356 338 333 332 332 330
184 183 184 184 184 183 182 181 180 179 178 175 171 169 169 169 167 165 166 163 159 156 153 157 155 148 148 146 145 141 137 127 121 119 120 144 156 152 154 136 104 101 104 101 111 114 110 109 97 78 74 44 32 25 11 3 359 353 345 336 333 331 330 331 332 336 341 349 358 3 6 60 67 54 41 4 347 348 343 335 330 330 334 334 329
185 185 185 184 185 182 180 179 178 179 176 172 168 169 172 171 169 168 168 160 153 153 152 153 149 148 151 147 145 138 131 123 130 144 146 157 160 155 156 153 136 121 120 113 106 101 93 78 44 358 341 345 343 342 333 322 319 317 313 313 312 313 314 314 315 318 323 330 338 346 348 351 358 16 36 354 321 303 306 312 316 320 331 340 338
184 185 184 184 185 180 178 177 177 176 170 164 164 168 170 170 169 169 166 162 158 155 153 157 151 142 143 141 138 132 134 146 163 172 170 167 161 157 154 154 152 140 130 118 101 85 80 65 30 343 326 326 322 318 318 312 307 304 301 300 300 301 302 302 304 307 311 315 322 329 332 324 301 297 312 335 318 302 303 306 306 309 321 337 342
183 184 183 184 183 179 176 175 176 173 167 163 165 169 168 165 166 169 169 167 164 161 161 166 159 140 134 133 132 134 155 174 173 168 164 160 158 155 153 153 152 147 135 124 112 96 89 349 320 330 332 332 329 323 322 318 314 309 304 298 294 293 294 294 293 295 299 302 306 311 317 312 293 283 288 312 322 308 302 307 307 310 318 329 334
183 184 184 187 185 181 177 176 175 171 168 166 167 169 167 163 165 169 169 169 167 166 167 169 164 148 142 142 148 158 172 179 174 172 168 161 158 152 151 150 149 150 145 136 125 114 101 34 347 346 345 348 349 348 346 341 337 332 327 319 310 303 299 296 291 290 292 295 298 297 301 302 293 287 288 296 314 310 303 305 308 311 317 322 328
183 185 186 189 187 182 180 180 175 172 171 168 169 170 168 166 169 171 170 173 173 174 174 173 172 168 167 169 175 180 181 182 179 179 176 171 164 155 148 142 139 140 142 141 131 113 87 60 43 30 21 20 19 18 16 12 8 3 357 350 341 329 317 309 301 297 295 295 297 293 288 291 292 293 295 294 304 307 302 305 309 312 315 318 323
184 186 189 190 188 187 185 185 181 178 176 173 174 174 173 174 176 178 177 179 181 183 183 184 185 184 185 184 185 186 186 183 180 176 172 169 160 152 141 131 128 126 127 125 116 101 83 71 64 58 53 49 46 41 37 34 30 26 22 16 8 354 339 330 321 314 308 302 300 296 288 285 287 289 292 292 295 300 300 302 305 309 312 316 320
187 188 193 193 191 191 188 188 187 182 180 179 178 179 180 180 181 182 184 186 187 189 189 191 190 189 187 185 185 183 183 179 174 168 160 156 149 143 135 128 123 120 119 116 110 101 90 80 71 63 59 56 56 52 48 43 39 36 32 30 27 17 8 2 352 342 334 323 313 304 298 289 284 285 284 285 287 294 305 306 302 303 308 312 316
194 191 194 195 193 192 190 191 189 185 184 183 183 184 182 182 183 184 186 188 188 190 190 191 189 187 183 180 179 175 173 168 163 158 152 146 141 137 131 127 120 117 115 112 108 102 95 86 77 69 62 57 57 53 48 44 41 39 35 35 33 26 22 23 19 13 10 1 350 334 320 307 296 289 285 285 289 293 302 309 303 298 303 308 312
199 196 195 194 194 194 192 193 190 188 187 187 187 185 183 184 185 187 188 188 189 189 189 188 186 183 179 175 172 168 165 161 156 151 147 142 137 132 127 121 116 113 110 107 103 98 93 88 83 74 66 58 56 49 41 38 37 35 31 33 29 24 20 19 19 19 21 21 21 12 358 343 333 330 321 313 315 313 305 304 300 293 297 305 311
199 199 197 195 196 196 195 194 192 191 191 191 189 185 186 187 189 192 191 190 189 189 187 185 183 179 176 172 168 165 161 157 153 150 147 144 138 132 128 123 120 116 111 107 102 98 93 89 85 77 70 64 60 53 44 40 36 31 27 26 22 18 13 7 5 6 5 5 8 6 0 356 350 353 351 341 335 333 323 309 296 287 289 296 302
200 203 202 200 199 199 198 195 194 194 195 194 190 188 188 190 193 196 194 192 190 187 186 183 181 178 175 171 167 163 159 156 152 150 148 146 143 139 135 129 126 121 116 112 108 103 98 94 89 82 76 71 68 63 57 52 44 35 29 24 20 16 11 6 2 359 354 346 342 337 333 334 334 336 341 337 324 319 327 325 311 296 290 290 292
201 204 205 206 203 201 200 197 197 196 198 196 192 189 190 194 195 197 196 193 190 188 185 183 181 178 176 172 168 163 160 157 154 153 151 150 148 144 140 137 136 132 128 125 120 114 108 104 99 93 84 78 72 67 63 59 53 45 39 31 25 18 11 8 7 2 354 348 341 328 317 311 313 317 322 325 314 298 305 317 316 307 301 299 297
201 205 206 208 206 203 201 200 200 199 201 198 194 191 192 197 197 197 198 195 193 189 186 184 182 179 177 173 169 166 162 161 159 158 157 156 155 150 147 146 145 141 136 129 124 116 110 103 97 91 83 77 71 66 62 57 53 48 44 39 34 27 22 19 14 8 359 355 350 339 330 319 309 308 312 315 310 298 294 298 302 301 300 300 300
200 204 206 208 207 205 203 202 201 202 203 200 199 196 194 197 199 199 198 198 194 190 187 184 183 181 180 176 171 168 166 165 165 165 166 166 165 160 154 149 145 138 131 122 114 104 97 89 83 78 71 67 61 58 54 51 48 44 41 38 37 34 32 29 24 20 11 5 357 348 342 336 326 317 316 316 312 303 294 292 292 294 295 296 299
200 202 205 207 207 206 204 204 203 203 203 203 202 200 197 198 201 202 200 200 195 191 188 184 184 183 182 178 174 171 169 169 169 171 172 172 169 163 155 147 139 130 121 113 105 95 88 79 72 65 58 55 50 46 43 43 41 39 38 34 34 33 33 32 29 26 21 19 11 1 351 345 339 333 330 328 324 315 304 298 296 297 299 301 306
200 202 205 207 208 207 205 205 205 205 205 205 204 202 200 199 202 204 202 201 197 193 189 187 187 187 184 179 176 174 172 171 171 173 174 172 167 159 149 141 133 124 116 108 100 92 82 72 63 54 49 44 40 38 36 36 36 36 36 33 32 32 31 29 28 26 23 21 17 9 1 354 345 340 338 336 333 325 318 314 311 311 313 316 318
203 205 206 206 207 206 206 206 206 206 206 205 204 203 201 201 202 203 203 200 199 196 193 192 191 190 185 180 179 175 173 172 171 173 172 169 162 152 144 136 131 121 111 102 92 83 72 61 53 46 39 34 32 32 32 33 34 36 35 35 34 32 29 24 23 21 18 14 10 5 360 355 349 345 340 337 334 329 326 323 320 319 320 322 321
206 207 207 206 206 207 207 206 207 208 207 206 204 203 201 202 201 201 202 201 199 197 196 196 194 192 185 182 180 175 173 171 171 172 169 166 157 151 146 138 131 118 106 94 82 72 62 52 44 36 30 27 26 24 27 28 30 35 36 36 33 30 25 19 15 10 6 1 359 354 348 345 341 340 338 339 336 333 333 329 326 324 323 323 321
207 208 208 208 208 208 208 207 207 207 208 207 205 204 202 202 202 200 200 200 199 197 197 197 195 191 186 183 180 175 174 172 172 172 167 164 159 156 151 141 130 115 101 87 71 63 53 44 37 32 30 27 24 22 23 26 27 31 32 32 28 23 18 12 8 2 355 350 347 344 339 335 333 332 332 336 336 334 334 332 331 330 327 325 322
208 210 210 209 209 208 208 208 207 207 207 207 206 205 204 203 202 201 200 200 198 197 197 197 194 190 187 185 182 179 177 174 173 172 169 167 165 163 155 143 131 115 97 79 64 56 45 39 35 33 34 31 30 28 27 30 28 28 27 25 21 16 12 8 4 357 350 343 338 337 332 329 329 327 327 331 333 332 333 333 333 332 330 327 324
209 212 211 209 210 209 208 208 209 208 207 206 206 205 205 204 203 202 201 201 199 198 198 197 193 190 190 190 187 185 182 178 176 176 173 170 171 167 157 148 137 121 98 80 61 51 44 38 34 33 36 35 37 35 32 35 30 26 23 18 15 13 9 4 359 354 348 341 334 333 330 327 326 324 324 325 330 332 333 333 334 334 332 331 329
213 214 211 210 211 210 207 208 209 209 208 206 206 206 206 204 203 203 202 201 201 199 198 196 192 191 192 193 191 190 187 182 179 179 176 174 174 168 159 154 145 130 110 88 66 54 44 36 34 33 33 35 39 38 36 38 34 25 18 15 13 10 5 358 354 351 347 343 337 334 332 328 325 323 323 323 329 334 335 335 336 336 336 336 335
217 216 213 212 212 209 208 210 210 210 209 208 207 207 207 206 204 205 204 203 202 199 198 196 194 194 194 193 193 194 191 186 183 182 179 179 175 169 163 158 151 140 125 103 79 59 43 35 30 30 32 34 35 37 38 35 33 23 14 13 10 6 0 354 351 349 346 343 338 336 338 337 332 329 328 330 338 346 346 344 343 342 341 339 338
218 217 216 215 211 209 210 211 210 210 210 209 209 209 209 208 206 206 205 204 202 200 198 197 197 196 196 196 195 195 193 190 187 185 183 182 178 172 166 162 157 146 135 118 93 62 43 33 26 29 30 30 30 32 31 27 24 18 11 8 5 2 356 352 350 346 343 341 338 337 339 342 342 341 345 352 2 7 3 1 360 356 350 345 343
218 219 219 215 211 211 211 210 209 209 210 210 210 210 210 209 207 206 206 205 204 201 199 200 199 198 198 199 199 196 194 193 190 189 186 184 182 175 169 166 162 153 143 128 102 69 46 30 27 29 27 31 29 25 21 16 15 11 7 2 359 356 352 351 349 345 342 341 340 340 343 352 4 8 8 13 18 16 10 8 9 7 0 351 345
220 221 218 215 214 213 211 210 209 209 210 211 211 212 212 210 208 208 207 206 205 203 202 201 200 199 199 201 201 198 196 195 193 191 188 187 185 179 174 170 166 161 151 136 113 87 52 38 36 30 31 33 22 18 14 8 7 4 0 357 355 353 351 351 348 345 344 344 345 348 355 7 20 22 17 20 21 15 10 10 9 6 2 355 348
221 218 217 218 217 213 211 209 208 210 211 211 212 212 212 210 209 209 208 207 206 206 205 203 202 201 201 202 202 199 197 196 195 192 190 190 188 182 178 175 172 166 157 147 130 105 71 51 36 27 26 21 9 3 359 358 359 357 354 351 352 351 349 350 349 348 348 351 357 2 12 21 22 16 14 18 17 11 7 8 7 1 359 359 356
218 215 219 220 216 212 210 209 208 210 210 210 211 212 212 211 210 210 209 208 208 208 208 205 203 202 203 203 202 201 198 197 197 195 194 193 191 185 181 179 176 168 161 154 144 129 105 46 22 20 12 8 4 353 350 351 349 349 348 345 347 348 349 351 350 352 358 8 18 19 21 18 11 5 5 8 3 358 358 359 0 355 351 353 357
218 219 220 217 213 212 209 208 208 208 208 209 210 211 212 211 210 210 209 209 208 209 210 208 206 204 204 203 202 201 199 199 198 198 197 195 192 188 184 182 177 170 166 162 158 155 138 15 13 18 7 7 358 350 347 343 342 343 341 340 342 342 345 348 351 3 18 28 32 29 20 8 3 1 354 347 341 341 344 344 344 343 341 340 346
221 220 218 214 211 210 208 208 208 208 208 207 208 209 210 210 210 210 210 209 209 210 210 210 208 206 205 205 204 202 200 201 199 199 199 197 194 189 186 183 179 175 171 171 169 163 138 20 24 10 4 5 352 347 344 340 340 338 335 337 338 336 338 343 352 12 30 50 40 8 347 335 327 329 327 324 324 328 333 337 336 336 335 332 333
223 219 217 215 211 208 207 207 207 206 205 204 205 206 207 209 209 209 210 209 210 212 211 212 211 208 207 206 205 203 201 201 201 200 199 198 195 190 188 185 182 180 177 176 172 163 136 85 34 358 351 354 352 348 342 339 339 336 334 336 334 332 333 336 345 13 60 44 357 337 333 328 323 330 338 340 338 335 338 341 339 336 334 332 330
222 219 217 215 211 207 205 204 204 202 201 201 202 203 204 205 205 206 209 209 210 212 213 214 213 210 208 207 207 204 201 201 202 200 198 197 194 190 190 188 185 183 182 180 174 166 152 138 77 0 338 346 352 346 340 338 338 335 332 334 334 333 332 333 338 64 62 352 336 339 0 4 358 2 2 358 351 344 343 342 340 336 333 333 332
221 217 214 211 208 205 201 200 200 199 196 196 197 198 198 199 201 202 206 208 210 211 213 215 214 212 210 209 210 206 202 202 201 201 199 198 196 193 192 190 189 188 187 183 172 166 162 163 172 184 301 343 350 340 340 338 335 334 333 335 341 342 336 328 157 115 7 339 334 15 16 2 353 353 354 354 350 343 340 337 336 334 333 333 333
218 214 210 208 207 203 199 197 197 195 193 193 194 194 194 194 196 201 205 207 208 209 212 214 214 215 213 212 212 208 204 203 202 201 200 199 197 195 194 194 192 191 187 180 172 170 170 177 183 194 249 313 358 342 345 345 343 342 337 335 343 352 350 285 160 92 349 336 57 17 359 2 4 1 356 352 351 348 346 339 335 335 332 330 328
212 210 209 208 206 201 199 197 194 193 194 194 194 195 197 198 198 202 204 205 206 208 210 212 214 215 214 214 213 210 206 204 203 202 201 200 198 197 197 197 195 192 186 180 178 177 178 183 190 207 245 300 24 12 358 0 2 345 332 325 340 357 1 208 177 325 341 344 100 351 351 13 6 357 350 347 351 352 348 340 336 337 335 330 323
211 208 209 206 201 199 198 196 194 194 195 195 196 198 200 201 201 202 203 203 206 209 211 213 213 214 214 214 214 212 207 206 205 203 203 202 201 201 200 198 197 194 190 186 183 183 186 187 191 212 234 353 44 42 12 16 7 345 334 315 342 2 353 28 239 316 331 142 341 342 354 0 351 341 338 342 350 349 345 341 337 338 338 333 327
208 205 204 201 198 199 198 195 195 194 194 196 197 198 198 198 200 202 202 203 206 208 210 213 213 213 213 214 215 213 209 208 207 206 205 203 202 203 201 199 198 197 196 193 190 189 191 192 195 208 215 137 82 82 30 21 11 3 7 302 312 60 339 341 316 317 302 244 329 341 350 343 339 335 338 343 346 341 339 338 336 337 336 334 329
204 203 201 199 199 199 197 195 195 194 194 195 195 195 193 192 193 195 197 200 203 204 206 211 211 211 213 213 214 213 210 209 208 207 206 204 203 202 202 201 198 197 197 196 195 192 192 195 199 209 218 197 103 109 91 26 12 16 35 313 321 346 267 312 324 310 266 303 320 336 341 341 342 340 340 339 338 335 334 335 335 337 336 333 331
205 205 202 200 199 197 195 194 193 193 193 193 192 192 191 190 189 187 189 193 197 202 206 208 207 208 211 212 213 213 212 210 208 208 207 205 204 202 202 201 199 198 198 196 194 193 194 196 196 205 221 254 5 65 128 11 6 348 322 160 202 260 292 325 336 295 297 308 310 329 337 345 349 340 334 332 333 332 331 332 334 335 333 332 332
207 204 201 198 197 194 193 192 192 192 192 192 191 191 191 191 192 193 195 196 200 207 210 209 208 208 210 211 212 213 212 210 209 208 207 206 204 203 202 201 201 199 198 196 195 195 195 194 196 203 215 227 345 3 294 302 347 180 214 195 226 275 308 329 341 313 318 308 301 322 333 344 340 333 331 332 333 333 331 331 331 330 331 333 334
204 198 196 195 195 193 192 191 191 191 192 192 192 193 193 194 196 198 201 203 207 211 212 210 211 210 209 211 213 213 213 212 212 210 208 207 205 204 202 201 200 199 199 199 197 195 192 194 198 201 207 209 293 326 293 293 298 202 219 250 273 292 306 314 310 301 312 302 310 322 327 326 327 330 332 332 333 334 331 327 326 327 331 333 336
199 194 195 194 193 191 190 190 190 191 192 192 194 195 197 198 199 200 204 208 211 213 212 210 211 210 210 211 212 212 212 212 213 212 210 208 206 205 204 202 200 199 200 199 196 196 195 198 201 201 206 201 208 280 282 277 272 252 262 287 296 302 309 314 315 301 267 277 307 322 322 324 327 326 326 327 329 329 325 323 324 326 329 332 337
197 195 193 191 189 189 188 189 191 192 192 194 195 197 199 200 201 202 205 208 209 210 211 210 209 210 210 210 211 211 211 211 212 213 212 210 207 207 206 205 203 201 201 198 196 197 196 199 202 204 208 202 200 239 258 256 250 248 256 271 283 300 316 320 331 336 303 268 271 290 306 317 322 317 319 323 322 320 322 324 326 326 327 332 337
193 191 190 189 188 188 188 189 191 192 193 195 197 199 200 201 204 206 207 207 205 206 207 207 207 208 209 210 210 210 211 211 211 212 212 211 209 209 209 208 206 204 203 201 199 198 197 197 200 203 206 202 201 217 235 240 236 238 242 248 256 265 271 260 275 300 295 264 275 285 289 295 292 296 308 316 316 318 322 325 328 331 333 334 336